[TLELIST] Archives

 

[list_settings.list_name] Current TLEs

June 17th 2010 PST

HST 1 20580U 90037B 10167.58213882 .00000352 00000-0 14080-4 0 5854 2 20580 028.4697 243.8094 0003506 192.4456 167.6113 15.00986645904662 ISS (ZARYA) 1 25544U 98067A 10168.49639422 .00010483 00000-0 78563-4 0 3392 2 25544 051.6454 229.0303 0009230 333.8948 026.2109 15.71867047663526 CXO 1 25867U 99040B 10169.04166667 -.00000066 00000-0 10000-3 0 4793 2 25867 067.1356 053.4330 8167771 275.2835 356.0893 00.37805897 6394 ____________________________________________________________________ These 2-Line ...Continue Reading

[list_settings.list_name] Current TLEs

June 15th 2010 PST

HST 1 20580U 90037B 10164.72298468 .00000344 00000-0 13460-4 0 5841 2 20580 028.4708 262.4740 0003440 161.3596 198.7208 15.00985610904231 ISS (ZARYA) 1 25544U 98067A 10166.53868819 .00006893 00000-0 56492-4 0 3273 2 25544 051.6482 239.0441 0008789 327.8157 106.8700 15.71831625663215 CXO 1 25867U 99040B 10166.41666667 -.00000035 00000-0 10000-3 0 4781 2 25867 067.1208 053.6193 8164411 275.2620 358.6808 00.37807230 6385 ____________________________________________________________________ These 2-Line ...Continue Reading

[list_settings.list_name] Current TLEs

June 14th 2010 PST

HST 1 20580U 90037B 10164.72298468 .00000344 00000-0 13460-4 0 5841 2 20580 028.4708 262.4740 0003440 161.3596 198.7208 15.00985610904231 ISS (ZARYA) 1 25544U 98067A 10165.53207634 .00006441 00000-0 53130-4 0 3213 2 25544 051.6478 244.1987 0008839 323.3529 171.5191 15.71815966663057 CXO 1 25867U 99040B 10163.79166667 -.00000041 00000-0 10000-3 0 4770 2 25867 067.1173 053.7972 8156915 275.2588 001.2724 00.37797528 6370 ____________________________________________________________________ These 2-Line ...Continue Reading

[list_settings.list_name] Current TLEs

June 13th 2010 PST

HST 1 20580U 90037B 10163.59261900 .00000338 00000-0 13026-4 0 5836 2 20580 028.4719 269.8601 0003456 148.0872 211.9866 15.00985286904064 ISS (ZARYA) 1 25544U 98067A 10164.37177616 .00008636 00000-0 69658-4 0 3153 2 25544 051.6492 250.1336 0008824 319.3487 085.5437 15.71803180662871 CXO 1 25867U 99040B 10163.79166667 -.00000041 00000-0 10000-3 0 4770 2 25867 067.1173 053.7972 8156915 275.2588 001.2724 00.37797528 6370 ____________________________________________________________________ These 2-Line ...Continue Reading

[list_settings.list_name] Current TLEs

June 12th 2010 PST

HST 1 20580U 90037B 10160.79995157 .00000418 00000-0 19150-4 0 5825 2 20580 028.4719 288.0856 0003457 118.4019 241.6867 15.00984670903644 ISS (ZARYA) 1 25544U 98067A 10163.49297253 .00009410 00000-0 75518-4 0 3114 2 25544 051.6489 254.6332 0008708 315.0554 153.8220 15.71789773662736 CXO 1 25867U 99040B 10163.79166667 -.00000041 00000-0 10000-3 0 4770 2 25867 067.1173 053.7972 8156915 275.2588 001.2724 00.37797528 6370 ____________________________________________________________________ These 2-Line ...Continue Reading

[list_settings.list_name] Current TLEs

June 11th 2010 PST

HST 1 20580U 90037B 10160.79995157 .00000418 00000-0 19150-4 0 5825 2 20580 028.4719 288.0856 0003457 118.4019 241.6867 15.00984670903644 ISS (ZARYA) 1 25544U 98067A 10162.47475162 .00009076 00000-0 73065-4 0 3043 2 25544 051.6488 259.8430 0008878 310.3740 153.1182 15.71768611662574 CXO 1 25867U 99040B 10161.12500000 .00000052 00000-0 10000-3 0 4768 2 25867 067.1053 053.9281 8153938 275.2902 358.1528 00.37800358 6365 ____________________________________________________________________ These 2-Line ...Continue Reading

[list_settings.list_name] Current TLEs

June 10th 2010 PST

HST 1 20580U 90037B 10160.79995157 .00000418 00000-0 19150-4 0 5825 2 20580 028.4719 288.0856 0003457 118.4019 241.6867 15.00984670903644 ISS (ZARYA) 1 25544U 98067A 10161.51401451 .00007481 00000-0 61116-4 0 3140 2 25544 051.6491 264.7601 0008799 305.8465 117.8134 15.71746182662425 CXO 1 25867U 99040B 10161.12500000 .00000052 00000-0 10000-3 0 4768 2 25867 067.1053 053.9281 8153938 275.2902 358.1528 00.37800358 6365 ____________________________________________________________________ These 2-Line ...Continue Reading

[list_settings.list_name] Current TLEs

June 9th 2010 PST

HST 1 20580U 90037B 10158.80518761 .00000447 00000-0 21373-4 0 5817 2 20580 028.4719 301.1067 0003383 101.2352 258.8612 15.00983879903348 ISS (ZARYA) 1 25544U 98067A 10160.50367037 -.00002375 00000-0 -13253-4 0 3080 2 25544 051.6483 269.9329 0009192 301.4812 161.5356 15.71717853662263 CXO 1 25867U 99040B 10161.12500000 .00000052 00000-0 10000-3 0 4768 2 25867 067.1053 053.9281 8153938 275.2902 358.1528 00.37800358 6365 ____________________________________________________________________ These 2-Line ...Continue Reading

[list_settings.list_name] Current TLEs

June 8th 2010 PST

HST 1 20580U 90037B 10158.80518761 .00000447 00000-0 21373-4 0 5817 2 20580 028.4719 301.1067 0003383 101.2352 258.8612 15.00983879903348 ISS (ZARYA) 1 25544U 98067A 10159.48442881 .00084364 00000-0 63635-3 0 3013 2 25544 051.6477 275.1465 0009179 299.2879 152.7780 15.71702754662108 CXO 1 25867U 99040B 10158.45833333 .00000148 00000-0 10000-3 0 4753 2 25867 067.0880 054.0890 8153498 275.2808 355.1135 00.37806098 6353 ____________________________________________________________________ These 2-Line ...Continue Reading

[list_settings.list_name] Current TLEs

June 7th 2010 PST

HST 1 20580U 90037B 10157.80780534 .00000497 00000-0 25199-4 0 5809 2 20580 028.4715 307.6182 0003379 090.5486 269.5506 15.00983650903197 ISS (ZARYA) 1 25544U 98067A 10158.52306749 .00009432 00000-0 73406-4 0 2952 2 25544 051.6485 280.0669 0004987 296.2695 111.0534 15.72546402661957 CXO 1 25867U 99040B 10158.45833333 .00000148 00000-0 10000-3 0 4753 2 25867 067.0880 054.0890 8153498 275.2808 355.1135 00.37806098 6353 ____________________________________________________________________ These 2-Line ...Continue Reading
  • This mailing list is a public mailing list - anyone may join or leave, at any time.
  • This mailing list is announce-only.

International Space Station (ISS) / Hubble Space Telescope (HST) / Chandra X-Ray Observatory Orbital Data via EMAIL

Privacy Policy:

Private list